Total_Precipitation_Accumulation
1.89 1.80 2.64 3.99 4.19 3.49 2.99 2.50 1.87 1.51 1.03 0.86 0.80 0.94 1.22 1.58 1.88 2.19 2.48 2.37 1.58 1.30 1.33 2.05 2.89 2.76 2.47 2.43 2.40 2.33 2.31 2.26 2.03 1.88 1.73 1.62 1.46 1.39 1.39 1.39 1.37 1.28 1.20 1.33 1.55 1.74 1.79 1.72 1.73
1.49 2.15 3.17 4.38 3.90 3.13 2.88 2.43 1.85 1.26 0.79 0.62 0.55 0.66 0.78 0.75 0.81 1.38 2.39 2.42 1.35 1.07 1.14 1.58 2.35 2.30 2.21 2.20 2.12 2.07 1.95 1.83 1.84 1.81 1.64 1.54 1.45 1.42 1.45 1.42 1.34 1.28 1.21 1.32 1.51 1.69 1.67 1.68 1.75
1.68 2.80 3.75 3.93 3.15 2.92 2.85 2.22 1.52 0.87 0.55 0.50 0.49 0.52 0.61 0.86 1.01 1.51 2.17 1.74 1.08 0.89 1.08 1.64 2.18 2.11 2.09 2.04 1.86 1.88 1.73 1.61 1.60 1.63 1.55 1.55 1.44 1.36 1.33 1.35 1.37 1.35 1.30 1.31 1.44 1.49 1.51 1.61 1.68
1.88 3.00 3.32 3.05 2.75 2.33 1.97 1.62 1.20 0.99 0.64 0.38 0.36 0.48 0.55 0.94 1.24 1.43 1.48 1.19 1.00 1.01 1.06 1.43 1.88 1.89 1.88 1.80 1.73 1.72 1.61 1.60 1.51 1.45 1.45 1.49 1.44 1.37 1.31 1.39 1.35 1.32 1.38 1.42 1.45 1.50 1.59 1.57 1.58
2.40 3.05 2.91 2.52 2.31 1.90 1.43 1.12 0.96 0.97 0.77 0.44 0.32 0.53 0.80 1.19 1.32 1.18 1.06 0.88 0.86 0.93 0.92 1.15 1.68 1.69 1.67 1.67 1.65 1.70 1.65 1.62 1.49 1.39 1.45 1.57 1.49 1.42 1.36 1.41 1.39 1.33 1.32 1.43 1.46 1.51 1.58 1.49 1.50
2.66 2.71 2.70 2.38 2.28 1.87 1.44 1.03 0.81 0.76 0.62 0.42 0.34 0.55 0.89 1.20 1.39 1.23 1.09 1.07 1.02 1.04 0.94 1.06 1.62 1.73 1.62 1.65 1.59 1.63 1.69 1.63 1.49 1.39 1.37 1.43 1.42 1.34 1.34 1.32 1.39 1.37 1.34 1.39 1.44 1.45 1.50 1.37 1.34
2.55 2.51 2.31 1.96 2.11 2.28 1.67 1.04 0.87 0.84 0.67 0.47 0.34 0.60 0.90 1.16 1.18 1.14 1.21 1.28 1.28 1.33 1.27 1.30 1.45 1.52 1.64 1.65 1.56 1.72 1.83 1.70 1.50 1.34 1.31 1.26 1.28 1.27 1.26 1.26 1.38 1.39 1.36 1.38 1.39 1.41 1.47 1.37 1.26
2.02 2.07 1.92 1.92 2.15 2.36 1.56 1.03 0.84 0.78 0.69 0.35 0.30 0.57 0.87 0.87 0.88 1.04 1.18 1.21 1.20 1.27 1.25 1.30 1.39 1.40 1.41 1.49 1.67 1.85 2.16 2.05 1.66 1.40 1.22 1.17 1.12 1.14 1.25 1.23 1.33 1.40 1.44 1.51 1.52 1.52 1.48 1.45 1.32
1.86 2.19 2.32 2.41 2.42 2.11 1.40 1.21 0.94 0.63 0.55 0.40 0.37 0.48 0.57 0.56 0.72 0.85 0.98 1.00 0.98 0.97 1.03 1.15 1.22 1.24 1.31 1.29 1.48 1.86 2.22 2.26 1.86 1.52 1.37 1.12 0.82 0.83 1.06 1.24 1.44 1.54 1.62 1.72 1.77 1.74 1.64 1.50 1.37
1.82 2.15 2.12 1.88 1.57 1.30 1.14 1.05 0.89 0.76 0.77 0.60 0.50 0.48 0.51 0.55 0.76 0.85 0.85 0.90 0.85 0.77 0.73 0.76 0.81 0.91 0.99 1.01 1.29 1.56 1.63 1.82 1.56 1.49 1.35 1.18 1.12 1.06 0.92 1.07 1.45 1.68 1.69 1.76 1.84 1.86 1.64 1.30 1.12
1.60 1.65 1.49 1.37 1.05 0.84 0.84 0.76 0.66 0.68 0.76 0.66 0.62 0.49 0.53 0.59 0.69 0.73 0.70 0.69 0.70 0.69 0.66 0.61 0.62 0.69 0.83 0.95 1.14 1.33 1.48 1.63 1.61 1.55 1.49 1.49 1.47 1.13 0.98 1.07 1.20 1.36 1.43 1.38 1.45 1.46 1.27 1.09 1.03
1.55 1.29 1.16 1.09 0.77 0.75 0.77 0.64 0.56 0.55 0.52 0.39 0.48 0.43 0.48 0.55 0.57 0.56 0.57 0.59 0.58 0.60 0.70 0.66 0.52 0.54 0.62 0.71 0.90 1.07 1.27 1.46 1.49 1.29 1.20 1.35 1.39 1.20 1.07 1.21 1.28 1.34 1.39 1.45 1.44 1.35 1.18 0.97 0.96
1.48 1.40 1.15 1.01 0.77 0.75 0.69 0.63 0.53 0.45 0.41 0.33 0.39 0.49 0.54 0.60 0.59 0.53 0.50 0.55 0.54 0.60 0.68 0.71 0.62 0.56 0.60 0.66 0.74 0.78 1.07 1.23 1.35 1.40 1.17 1.28 1.33 1.27 1.15 1.10 1.29 1.28 1.34 1.37 1.43 1.44 1.33 1.22 1.11
1.35 1.26 1.04 0.94 0.84 0.74 0.68 0.60 0.55 0.47 0.41 0.38 0.44 0.55 0.59 0.62 0.64 0.59 0.53 0.49 0.47 0.57 0.65 0.68 0.70 0.67 0.67 0.68 0.69 0.67 0.74 0.82 0.90 0.86 0.82 1.01 1.15 1.16 1.16 1.04 1.10 1.21 1.38 1.57 1.63 1.47 1.41 1.35 1.29
1.08 1.19 1.26 1.05 0.86 0.69 0.70 0.80 0.60 0.52 0.50 0.48 0.50 0.53 0.58 0.55 0.56 0.55 0.50 0.47 0.47 0.54 0.60 0.66 0.71 0.76 0.77 0.78 0.84 0.80 0.74 0.75 0.73 0.69 0.69 0.79 0.91 1.00 1.11 1.12 1.11 1.14 1.37 1.61 1.78 1.65 1.54 1.38 1.37
1.14 1.33 1.63 1.31 1.09 0.85 0.93 1.09 0.57 0.51 0.57 0.53 0.49 0.47 0.46 0.44 0.46 0.48 0.48 0.48 0.50 0.51 0.50 0.53 0.55 0.63 0.67 0.73 0.79 0.88 0.88 0.87 0.83 0.84 0.80 0.75 0.88 1.01 1.13 1.20 1.15 1.15 1.34 1.59 1.83 1.88 1.86 1.75 1.66
1.29 1.28 1.29 1.26 1.09 0.90 0.88 0.84 0.50 0.48 0.57 0.59 0.51 0.47 0.43 0.34 0.34 0.38 0.38 0.41 0.45 0.45 0.40 0.40 0.44 0.46 0.48 0.53 0.62 0.76 0.83 0.90 0.96 0.97 0.96 0.97 1.02 1.04 1.17 1.35 1.38 1.36 1.47 1.58 1.64 1.76 1.78 1.83 1.82
0.98 0.90 0.93 1.05 0.89 0.86 0.81 0.59 0.44 0.46 0.52 0.54 0.57 0.52 0.45 0.31 0.26 0.25 0.29 0.34 0.35 0.36 0.37 0.38 0.40 0.38 0.37 0.41 0.52 0.64 0.72 0.78 0.97 1.04 1.07 1.35 1.47 1.26 1.23 1.37 1.39 1.43 1.62 1.69 1.81 2.02 1.95 1.84 1.93
0.68 0.63 0.74 0.76 0.64 0.77 0.72 0.53 0.43 0.40 0.39 0.40 0.46 0.48 0.44 0.33 0.22 0.15 0.14 0.19 0.25 0.23 0.22 0.28 0.32 0.37 0.37 0.32 0.38 0.51 0.64 0.77 0.91 1.09 1.12 1.35 1.47 1.38 1.40 1.42 1.43 1.45 1.55 1.62 1.80 2.16 2.19 1.99 1.88
0.63 0.65 0.69 0.65 0.58 0.66 0.72 0.58 0.45 0.36 0.32 0.33 0.36 0.39 0.38 0.30 0.20 0.14 0.11 0.13 0.18 0.22 0.16 0.18 0.22 0.30 0.37 0.40 0.45 0.59 0.79 0.91 1.02 1.19 1.23 1.32 1.35 1.35 1.28 1.44 1.53 1.49 1.63 1.71 1.89 2.18 2.39 2.16 1.97
0.56 0.63 0.59 0.62 0.67 0.61 0.70 0.75 0.57 0.39 0.34 0.34 0.33 0.34 0.32 0.23 0.19 0.16 0.14 0.12 0.12 0.16 0.13 0.16 0.23 0.36 0.53 0.69 0.92 1.18 1.48 1.65 1.55 1.44 1.49 1.56 1.64 1.59 1.53 1.61 1.73 1.65 1.71 1.81 1.86 1.96 2.40 2.53 2.28
0.64 0.43 0.41 0.50 0.72 0.74 0.61 0.80 0.59 0.40 0.39 0.40 0.36 0.31 0.27 0.23 0.21 0.18 0.15 0.14 0.14 0.20 0.25 0.34 0.45 0.62 0.78 0.98 1.20 1.47 1.72 1.92 1.94 1.96 2.02 1.98 1.91 1.79 1.68 1.69 1.74 1.75 1.82 1.80 1.68 1.85 2.29 2.74 2.77
0.51 0.43 0.41 0.47 0.64 0.63 0.56 0.59 0.51 0.42 0.48 0.49 0.47 0.41 0.36 0.33 0.31 0.30 0.28 0.25 0.25 0.36 0.49 0.60 0.81 0.97 1.11 1.17 1.27 1.48 1.59 1.67 1.78 1.93 2.00 2.01 1.93 1.80 1.65 1.59 1.68 1.74 1.82 1.81 1.88 2.07 2.37 2.65 2.91
0.42 0.50 0.53 0.58 0.66 0.62 0.43 0.44 0.53 0.44 0.48 0.58 0.54 0.47 0.42 0.38 0.36 0.38 0.41 0.41 0.44 0.65 0.88 1.00 1.11 1.21 1.20 1.17 1.19 1.32 1.46 1.56 1.65 1.81 1.87 1.82 1.71 1.66 1.59 1.55 1.55 1.52 1.59 1.69 1.89 2.15 2.28 2.47 2.71
0.40 0.60 0.75 0.76 0.68 0.49 0.28 0.34 0.45 0.36 0.34 0.42 0.45 0.42 0.38 0.31 0.30 0.35 0.43 0.56 0.75 0.98 1.19 1.32 1.32 1.22 1.08 1.05 1.12 1.17 1.33 1.50 1.55 1.56 1.58 1.58 1.51 1.44 1.44 1.45 1.41 1.33 1.31 1.43 1.65 1.91 1.96 2.08 2.31
0.35 0.44 0.65 0.71 0.60 0.43 0.32 0.46 0.49 0.36 0.27 0.24 0.24 0.26 0.31 0.34 0.41 0.42 0.47 0.66 0.94 1.19 1.42 1.68 1.66 1.42 1.20 1.14 1.20 1.23 1.33 1.40 1.40 1.32 1.32 1.35 1.31 1.25 1.17 1.19 1.22 1.20 1.20 1.23 1.37 1.53 1.58 1.66 1.88
0.32 0.33 0.34 0.51 0.44 0.40 0.35 0.41 0.37 0.26 0.20 0.19 0.22 0.27 0.36 0.42 0.51 0.59 0.69 0.79 1.00 1.22 1.54 1.82 1.87 1.66 1.50 1.41 1.34 1.35 1.27 1.20 1.13 1.04 1.04 1.06 1.09 1.02 0.98 1.03 1.14 1.20 1.14 1.11 1.21 1.34 1.36 1.48 1.64
0.26 0.28 0.31 0.52 0.59 0.54 0.40 0.41 0.34 0.22 0.17 0.19 0.30 0.36 0.42 0.50 0.52 0.67 0.91 1.12 1.37 1.31 1.44 1.68 1.62 1.54 1.50 1.51 1.49 1.39 1.25 1.13 1.09 1.02 1.02 0.97 1.01 0.94 0.94 0.96 0.96 0.99 0.99 1.03 1.18 1.34 1.40 1.42 1.49
0.23 0.27 0.29 0.38 0.42 0.56 0.64 0.54 0.31 0.27 0.27 0.33 0.42 0.44 0.49 0.56 0.60 0.74 0.91 1.06 1.25 1.35 1.35 1.40 1.39 1.39 1.35 1.28 1.23 1.10 0.91 0.80 0.81 0.83 0.81 0.76 0.78 0.74 0.75 0.71 0.75 0.88 0.89 0.89 1.04 1.13 1.15 1.28 1.37
0.27 0.30 0.32 0.49 0.51 0.50 0.71 0.73 0.41 0.40 0.44 0.53 0.60 0.64 0.68 0.69 0.73 0.83 0.90 1.04 1.12 1.12 1.16 1.23 1.16 1.14 1.10 1.00 0.90 0.77 0.63 0.58 0.62 0.64 0.60 0.52 0.54 0.50 0.55 0.59 0.59 0.77 0.94 0.97 1.00 1.01 1.00 1.10 1.20